Heath, OH

12:25 PM EST on February 28, 2017 (GMT -0500)
Newark Heath

Weather History for KVTA - May, 2014

Change the Weather History Date:

Friday, May 9, 2014

  Actual Average Record
Temperature  
Mean Temperature 66 °F -  
Max Temperature 80 °F 69 °F 89 °F (1936)
Min Temperature 55 °F 47 °F 26 °F (1947)
Cooling Degree Days 2    
Growing Degree Days 16 (Base 50)    
Moisture  
Dew Point 59 °F    
Average Humidity 75    
Maximum Humidity 90    
Minimum Humidity 48    
Precipitation  
Precipitation 0.13 in - - ()
Sea Level Pressure  
Sea Level Pressure 29.92 in    
Wind  
Wind Speed 7 mph (SSW)    
Max Wind Speed 22 mph    
Max Gust Speed 32 mph    
Visibility 9 miles    
Events Rain , Thunderstorm    
Averages and records for this station are not official NWS values.
T = Trace of Precipitation, MM = Missing Value Source: NWS Daily Summary

Daily Weather History Graph

Daily Weather History Graph

Search for Another Location

Airport or City:

Trip Planner

Search our weather history database for the weather conditions in past years. The results will help you decide how hot, cold, wet, or windy it might be!

Date:

Astronomy

May. 09, 2014 Rise Set
Actual Time 6:20 AM EDT 8:32 PM EDT
Civil Twilight 5:50 AM EDT 9:02 PM EDT
Nautical Twilight 5:13 AM EDT 9:39 PM EDT
Astronomical Twilight 4:33 AM EDT 10:20 PM EDT
Moon 3:28 PM EDT (5/9) 3:22 AM EDT (5/9)
Length of Visible Light 15h 12m
Length of Day
14h 12m
Waxing Gibbous, 73% of the Moon is Illuminated
May 9
Waxing Gibbous
May 14
Full
May 21
Last Quarter
May 28
New
Jun 5
First Quarter

Hourly Weather History & Observations

Time (EDT) Temp. Dew Point Humidity Pressure Visibility Wind Dir Wind Speed Gust Speed Precip Events Conditions
12:54 AM 61.0 °F 55.9 °F 83% 30.01 in 10.0 mi Calm Calm - N/A   Clear
1:54 AM 60.1 °F 55.0 °F 83% 30.00 in 10.0 mi Calm Calm - N/A   Clear
2:54 AM 57.9 °F 54.0 °F 87% 29.98 in 10.0 mi Calm Calm - N/A   Clear
3:54 AM 55.9 °F 53.1 °F 90% 29.98 in 10.0 mi Calm Calm - N/A   Clear
5:54 AM 57.0 °F 53.1 °F 87% 29.97 in 10.0 mi Calm Calm - N/A   Clear
6:54 AM 55.9 °F 52.0 °F 87% 29.97 in 10.0 mi Calm Calm - N/A   Clear
7:54 AM 63.0 °F 57.0 °F 81% 29.98 in 10.0 mi Calm Calm - N/A   Partly Cloudy
8:54 AM 71.1 °F 55.0 °F 57% 29.97 in 10.0 mi SSW 9.2 mph - N/A   Scattered Clouds
9:54 AM 73.9 °F 55.9 °F 53% 29.96 in 10.0 mi SSW 8.1 mph - N/A   Scattered Clouds
10:54 AM 77.0 °F 57.0 °F 50% 29.94 in 10.0 mi South 12.7 mph 19.6 mph N/A   Clear
11:54 AM 78.1 °F 57.0 °F 48% 29.92 in 10.0 mi SSW 20.7 mph 32.2 mph N/A   Mostly Cloudy
12:43 PM 73.0 °F 59.0 °F 61% 29.95 in 6.0 mi SW 21.9 mph 32.2 mph 0.01 in Rain , Thunderstorm Thunderstorms and Rain
12:54 PM 70.0 °F 61.0 °F 73% 29.94 in 10.0 mi SSW 11.5 mph 25.3 mph 0.01 in Rain , Thunderstorm Light Thunderstorms and Rain
1:04 PM 71.1 °F 63.0 °F 75% 29.94 in 10.0 mi SSW 8.1 mph - 0.00 in   Scattered Clouds
1:54 PM 78.1 °F 60.1 °F 54% 29.90 in 10.0 mi SSW 19.6 mph 26.5 mph 0.00 in   Clear
2:54 PM 77.0 °F 55.9 °F 48% 29.88 in 10.0 mi SSW 15.0 mph 27.6 mph N/A   Mostly Cloudy
3:54 PM 78.1 °F 57.0 °F 48% 29.86 in 10.0 mi SSW 16.1 mph - N/A   Clear
4:54 PM 75.9 °F 57.0 °F 52% 29.85 in 10.0 mi SSW 13.8 mph 20.7 mph N/A   Overcast
5:54 PM 72.0 °F 57.0 °F 59% 29.86 in 10.0 mi SW 19.6 mph 28.8 mph 0.00 in   Overcast
6:54 PM 66.9 °F 62.1 °F 84% 29.87 in 7.0 mi SSW 8.1 mph - 0.03 in Rain Light Rain
7:07 PM 66.0 °F 63.0 °F 90% 29.88 in 1.5 mi SSW 12.7 mph 20.7 mph 0.07 in Rain Rain
7:15 PM 66.0 °F 63.0 °F 90% 29.88 in 1.8 mi SSW 9.2 mph 18.4 mph 0.09 in Rain Light Rain
7:18 PM 66.0 °F 63.0 °F 90% 29.88 in 3.0 mi SSW 9.2 mph - 0.09 in Rain Light Rain
7:29 PM 66.0 °F 63.0 °F 90% 29.88 in 10.0 mi SSW 10.4 mph - 0.09 in   Overcast
7:38 PM 66.0 °F 63.0 °F 90% 29.88 in 10.0 mi SSW 10.4 mph - 0.09 in   Overcast
7:47 PM 66.0 °F 63.0 °F 90% 29.88 in 10.0 mi SSW 10.4 mph - 0.09 in   Overcast
7:54 PM 66.0 °F 63.0 °F 90% 29.87 in 10.0 mi SSW 8.1 mph - 0.09 in   Overcast
8:34 PM 66.0 °F 62.1 °F 87% 29.88 in 10.0 mi SSW 8.1 mph - N/A   Scattered Clouds
8:54 PM 66.0 °F 62.1 °F 87% 29.86 in 10.0 mi SSW 9.2 mph - N/A   Clear
9:54 PM 66.0 °F 61.0 °F 84% 29.88 in 10.0 mi SSW 6.9 mph - N/A   Clear
10:54 PM 66.0 °F 61.0 °F 84% 29.90 in 10.0 mi SSW 8.1 mph - N/A   Clear
11:54 PM 64.9 °F 60.1 °F 84% 29.90 in 10.0 mi SSW 5.8 mph - N/A   Clear